Tracking 29892 objects as of 21-Nov-2024
HD Live streaming from Space Station
objects crossing your sky now

STARLINK-4546

Track STARLINK-4546 now!
10-day predictions
STARLINK-4546 is classified as:


NORAD ID: 53422
Int'l Code: 2022-097AL
Perigee: 546.0 km
Apogee: 547.7 km
Inclination: 53.2 °
Period: 95.4 minutes
Semi major axis: 6917 km
RCS: Unknown
Launch date: August 10, 2022
Source: United States (US)
Launch site: AIR FORCE EASTERN TEST RANGE (AFETR)
Your satellite tracking list
Your tracking list is empty




NASA's NSSDC Master Catalog

Two Line Element Set (TLE):
1 53422U 22097AL  24325.32030899 -.00000279  00000-0  53175-6 0  9992
2 53422  53.2180  83.6427 0001222  82.4992 277.6139 15.08844549127034
Source of the keplerian elements: AFSPC